Weather History for KEUF - September, 2012

Change the Weather History Date:

Saturday, September 8, 2012

  Actual Average (KLSF) Record (KLSF)
Temperature  
Mean Temperature 81 °F -  
Max Temperature 91 °F 85 °F 97 °F (2010)
Min Temperature 71 °F 63 °F 53 °F (1997)
Cooling Degree Days 16    
Growing Degree Days 31 (Base 50)    
Moisture  
Dew Point 74 °F    
Average Humidity 81    
Maximum Humidity 97    
Minimum Humidity 54    
Precipitation  
Precipitation 0.33 in - - ()
Sea Level Pressure  
Sea Level Pressure 29.83 in    
Wind  
Wind Speed 2 mph (WSW)    
Max Wind Speed 8 mph    
Max Gust Speed -    
Visibility 9 miles    
Events Fog , Rain , Thunderstorm    
Averages and records for this station are not official NWS values.
T = Trace of Precipitation, MM = Missing Value Source: NWS Daily Summary

Daily Weather History Graph

Daily Weather History Graph

Search for Another Location

Airport or City:

Trip Planner

Search our weather history database for the weather conditions in past years. The results will help you decide how hot, cold, wet, or windy it might be!

Date:

Astronomy

Sep. 08, 2012 Rise Set
Actual Time 6:20 AM CDT 6:54 PM CDT
Civil Twilight 5:55 AM CDT 7:19 PM CDT
Nautical Twilight 5:26 AM CDT 7:48 PM CDT
Astronomical Twilight 4:57 AM CDT 8:17 PM CDT
Moon No Moon Rise 1:35 PM CDT (9/8)
Length of Visible Light 13h 23m
Length of Day
12h 34m
Waning Gibbous, 48% of the Moon is Illuminated
Sep 8
Waning Gibbous
Sep 15
New
Sep 22
First Quarter
Sep 29
Full
Oct 8
Last Quarter

Hourly Weather History & Observations

Time (CDT) Temp. Heat Index Dew Point Humidity Pressure Visibility Wind Dir Wind Speed Gust Speed Precip Events Conditions
12:58 AM 75.0 °F - 73.0 °F 94% 29.87 in 10.0 mi Calm Calm - N/A   Clear
1:58 AM 73.9 °F - 72.0 °F 93% 29.87 in 8.0 mi Calm Calm - N/A   Clear
2:58 AM 73.0 °F - 71.1 °F 93% 29.86 in 7.0 mi Calm Calm - N/A   Clear
3:58 AM 72.0 °F - 71.1 °F 97% 29.85 in 7.0 mi Calm Calm - N/A   Clear
4:58 AM 71.1 °F - 70.0 °F 96% 29.85 in 7.0 mi Calm Calm - N/A   Clear
5:58 AM 71.1 °F - 70.0 °F 96% 29.85 in 8.0 mi Calm Calm - N/A   Clear
6:58 AM 73.0 °F - 71.1 °F 93% 29.86 in 7.0 mi Calm Calm - N/A   Clear
7:58 AM 75.9 °F - 73.9 °F 94% 29.86 in 8.0 mi Calm Calm - N/A   Overcast
8:25 AM 78.1 °F - 75.0 °F 90% 29.87 in 10.0 mi Calm Calm - N/A   Mostly Cloudy
8:33 AM 78.1 °F - 75.9 °F 93% 29.87 in 10.0 mi Calm Calm - N/A   Mostly Cloudy
8:58 AM 80.1 °F 85.4 °F 75.9 °F 87% 29.86 in 10.0 mi SSW 3.5 mph - N/A   Overcast
9:12 AM 81.0 °F 87.3 °F 75.9 °F 85% 29.87 in 10.0 mi Variable 3.5 mph - N/A   Mostly Cloudy
9:58 AM 82.9 °F 90.2 °F 75.0 °F 77% 29.86 in 10.0 mi Variable 3.5 mph - N/A   Mostly Cloudy
10:03 AM 84.0 °F 91.9 °F 75.0 °F 74% 29.87 in 10.0 mi SSW 4.6 mph - N/A   Mostly Cloudy
10:12 AM 86.0 °F 93.8 °F 73.9 °F 67% 29.87 in 10.0 mi Variable 5.8 mph - N/A   Mostly Cloudy
10:16 AM 86.0 °F 95.1 °F 75.0 °F 70% 29.87 in 10.0 mi SSW 6.9 mph - N/A   Mostly Cloudy
10:32 AM 84.0 °F 91.2 °F 73.9 °F 72% 29.86 in 10.0 mi South 4.6 mph - N/A   Scattered Clouds
10:58 AM 86.0 °F 95.1 °F 75.0 °F 70% 29.84 in 10.0 mi South 4.6 mph - N/A   Scattered Clouds
11:43 AM 89.1 °F 100.2 °F 75.9 °F 65% 29.83 in 10.0 mi SSE 5.8 mph - N/A   Mostly Cloudy
11:58 AM 87.1 °F 96.3 °F 75.0 °F 67% 29.82 in 10.0 mi Variable 3.5 mph - N/A   Overcast
12:03 PM 86.0 °F 95.1 °F 75.0 °F 70% 29.83 in 10.0 mi Variable 3.5 mph - N/A   Mostly Cloudy
12:58 PM 89.1 °F 99.1 °F 75.0 °F 63% 29.80 in 10.0 mi WNW 4.6 mph - N/A   Scattered Clouds
1:58 PM 89.1 °F 99.1 °F 75.0 °F 63% 29.78 in 10.0 mi Calm Calm - N/A   Mostly Cloudy
2:58 PM 91.9 °F 100.7 °F 73.0 °F 54% 29.76 in 10.0 mi Variable 3.5 mph - N/A   Clear
3:58 PM 91.9 °F 101.3 °F 73.9 °F 55% 29.74 in 10.0 mi Variable 3.5 mph - N/A   Clear
4:37 PM 84.0 °F 90.2 °F 73.0 °F 69% 29.77 in 10.0 mi NNW 4.6 mph - N/A Thunderstorm Thunderstorm
4:52 PM 82.0 °F 87.4 °F 73.0 °F 74% 29.78 in 8.0 mi WNW 3.5 mph - 0.01 in Rain Rain
4:58 PM 80.1 °F 84.5 °F 73.9 °F 81% 29.78 in 5.0 mi West 4.6 mph - 0.03 in Rain Light Rain
5:03 PM 79.0 °F - 73.9 °F 84% 29.79 in 1.8 mi WSW 8.1 mph - 0.08 in Rain Heavy Rain
5:10 PM 77.0 °F - 73.9 °F 90% 29.79 in 0.5 mi Calm Calm - 0.28 in Fog , Rain Heavy Rain
5:19 PM 79.0 °F - 75.0 °F 88% 29.79 in 2.0 mi Calm Calm - 0.30 in Rain Light Rain
5:23 PM 78.1 °F - 75.9 °F 93% 29.79 in 10.0 mi Calm Calm - 0.30 in Rain Light Rain
5:29 PM 79.0 °F - 75.9 °F 90% 29.79 in 10.0 mi Calm Calm - 0.30 in Rain Light Rain
5:58 PM 80.1 °F 84.2 °F 73.0 °F 79% 29.77 in 10.0 mi NNW 4.6 mph - 0.30 in   Mostly Cloudy
6:58 PM 78.1 °F - 73.0 °F 84% 29.78 in 10.0 mi Calm Calm - N/A   Scattered Clouds
7:58 PM 77.0 °F - 73.9 °F 90% 29.81 in 10.0 mi Calm Calm - N/A   Mostly Cloudy
8:58 PM 77.0 °F - 73.0 °F 88% 29.82 in 10.0 mi Calm Calm - N/A   Partly Cloudy
9:58 PM 75.9 °F - 73.9 °F 94% 29.84 in 10.0 mi Calm Calm - N/A   Clear
10:58 PM 77.0 °F - 72.0 °F 84% 29.85 in 10.0 mi Variable 4.6 mph - N/A   Mostly Cloudy
11:10 PM 77.0 °F - 71.1 °F 82% 29.86 in 10.0 mi Variable 5.8 mph - N/A   Overcast
11:58 PM 75.9 °F - 70.0 °F 82% 29.86 in 10.0 mi Variable 5.8 mph - N/A   Overcast